www.pogodaiklimat.ru

Погода и климат >> Архив погоды >> Россия >> Чукотка >> Мыс Ванкарем


АРХИВ ПОГОДЫ на Мысе Ванкарем

Время (UTC), дата Ветер
(напр.,м/с)
 
Видим.   Явления Облачность Т
(С)
Тd
(С)
f
(%)
Тe
(С)
Тes
(С)
Комфортность P
(гПа)
Po
(гПа)
Тmin
(С)
Tmax
(С)
R
(мм)
R24
(мм)
S
(см)
00 14.03 С 10
{13}
20 км позёмок 3/0
[Ci fib]
-27.3 -30.4 75 -43 -43 опасность
обморожения
1014.2 1013.5
03 14.03 С 9
{12}
20 км позёмок 3/0
[Ci fib]
-26.6 -30.0 73 -42 -42 опасность
обморожения
1013.6 1012.9
06 14.03 С 10
{12}
20 км позёмок 4/0
[Ci fib]
-26.8 -30.0 74 -43 -43 опасность
обморожения
1012.9 1012.2 -26.6
09 14.03 С 10
{13}
20 км позёмок 8/0
[Ac trans Ci fib]
-27.0 -30.1 75 -43 -43 опасность
обморожения
1012.2 1011.5
12 14.03 С 10
{13}
20 км позёмок 8/0
[Ac trans Ci fib]
-27.8 -30.9 75 -44 -44 опасность
обморожения
1011.7 1011.0
15 14.03 С 10
{14}
20 км позёмок 8/0
[Ac trans Ci fib]
-28.5 -31.5 75 -45 -45 опасность
обморожения
1010.9 1010.2
18 14.03 С 10
{14}
20 км позёмок 8/0
[Ac trans]
-29.2 -32.2 75 -46 -46 опасность
обморожения
1010.2 1009.5 -9.7
21 14.03 С 10
{13}
10 км позёмок 10/10 600 м
[Sc]
-27.3 -30.4 75 -43 -43 опасность
обморожения
1009.7 1009.0
00 15.03 С 10
{12}
10 км позёмок 10/10 600 м
[Sc]
-25.7 -28.1 80 -41 -41 опасность
обморожения
1007.8 1007.1
03 15.03 С 9
{12}
10 км позёмок 10/10 600 м
[Sc]
-25.3 -27.7 80 -40 -40 опасность
обморожения
1006.7 1006.0
06 15.03 С 9
{11}
10 км позёмок 10/10 600 м
[Sc]
-25.4 -27.8 80 -40 -40 опасность
обморожения
1007.6 1007.0 -25.0
09 15.03 С 10
{13}
10 км позёмок 10/10 600 м
[Sc]
-25.6 -28.1 79 -41 -41 опасность
обморожения
1008.6 1007.9
12 15.03 С 9
{13}
10 км позёмок 10/10 600 м
[Sc]
-26.9 -29.3 80 -42 -42 опасность
обморожения
1009.1 1008.4
15 15.03 С 10
{13}
10 км позёмок 10/10 600 м
[Sc]
-27.4 -29.8 80 -43 -43 опасность
обморожения
1008.3 1007.6
18 15.03 С 10
{14}
10 км позёмок 10/10 600 м
[Sc]
-27.9 -30.3 80 -44 -44 опасность
обморожения
1007.7 1007.0 -28.4
21 15.03 СЗ 10
{14}
10 км позёмок 10/10 600 м
[Sc]
-28.2 -30.6 80 -44 -44 опасность
обморожения
1006.8 1006.1
00 16.03 СЗ 9
{12}
10 км позёмок 10/10 600 м
[Sc]
-27.1 -29.4 81 -42 -42 опасность
обморожения
1006.1 1005.4
03 16.03 СЗ 9
{12}
10 км позёмок 9/5 600 м
[Sc Ac trans]
-26.5 -28.3 85 -42 -42 опасность
обморожения
1005.4 1004.7
06 16.03 СЗ 6
{11}
20 км {метель} 9/5 600 м
[Sc Ac trans]
-26.2 -28.7 79 -39 -39 опасность
обморожения
1006.0 1005.3 -26.0
09 16.03 СЗ 5
{8}
20 км 10/4 600 м
[Sc Ac und]
-26.4 -28.8 80 -38 -38 опасность
обморожения
1006.3 1005.6
12 16.03 СЗ 5
{8}
20 км 10/6 600 м
[Sc Ac und]
-26.7 -29.8 75 -38 -38 опасность
обморожения
1006.8 1006.1
15 16.03 СЗ 4
{8}
20 км 10/6 600 м
[Sc Ac und]
-26.1 -28.5 80 -36 -36 опасность
обморожения
1007.4 1006.7
18 16.03 СЗ 4
{8}
20 км 10/5 600 м
[Sc Ac und]
-25.7 -28.1 80 -36 -36 опасность
обморожения
1007.8 1007.1 -26.7
21 16.03 СЗ 5
{9}
20 км 10/5 600 м
[Sc Ac und]
-25.0 -27.4 80 -36 -36 опасность
обморожения
1008.4 1007.7
00 17.03 С 13
{17}
2000 м метель 10/10 600 м
[Sc]
-24.7 -26.5 85 -41 -41 опасность
обморожения
1005.9 1005.2
03 17.03 СЗ 12
{17}
2000 м метель {снег} 10/10 600 м
[Sc]
-24.1 -26.0 84 -40 -40 опасность
обморожения
1005.6 1004.9
06 17.03 СЗ 12
{17}
2000 м метель {снег} 10/10 600 м
[Sc]
-24.9 -26.7 85 -41 -41 опасность
обморожения
1004.9 1004.2 -23.7 0.3
09 17.03 СЗ 13
{18}
2000 м метель 10/10 600 м
[Sc]
-25.2 -27.0 85 -42 -42 опасность
обморожения
1004.5 1003.8
12 17.03 СЗ 13
{18}
2000 м метель {снег} 10/10 600 м
[Sc]
-25.9 -27.7 85 -43 -43 опасность
обморожения
1003.9 1003.2
15 17.03 СЗ 14
{18}
2000 м метель {снег} 10/10 600 м
[Sc]
-24.9 -26.7 85 -42 -42 опасность
обморожения
1003.4 1002.7
18 17.03 СЗ 14
{19}
2000 м метель {снег} 10/10 600 м
[Sc]
-25.4 -27.2 85 -43 -43 опасность
обморожения
1002.9 1002.2 -25.9 0.5
21 17.03 СЗ 14
{19}
2000 м метель 10/10 600 м
[Sc]
-25.0 -26.7 86 -42 -42 опасность
обморожения
1002.2 1001.5
00 18.03 С 13
{19}
2000 м метель 10/10 600 м
[Sc]
-25.4 -27.2 85 -42 -42 опасность
обморожения
1000.2 999.5
03 18.03 С 13
{18}
2000 м метель {снег} 10/10 600 м
[Sc]
-25.7 -27.4 86 -43 -43 опасность
обморожения
995.2 994.5
06 18.03 С 12
{18}
2000 м метель {снег} 10/8 600 м
[Sc Ac und]
-26.1 -27.9 85 -43 -43 опасность
обморожения
995.4 994.7 -24.7 0.3
09 18.03 С 12
{17}
2000 м метель 10/10 600 м
[Sc]
-26.9 -28.6 85 -44 -44 опасность
обморожения
996.6 995.9
12 18.03 З 1
{15}
20 км {метель} 10/10 600 м
[Sc]
-27.1 -28.8 85 -31 -31 опасность
обморожения
997.6 996.9
15 18.03 Ю 2
{5}
20 км 10/10 600 м
[Sc]
-27.5 -29.3 85 -35 -35 опасность
обморожения
998.7 998.0
18 18.03 Ю 2
{4}
20 км 10/10 600 м
[Sc]
-28.2 -30.0 84 -35 -35 опасность
обморожения
1000.1 999.4 -29.0
21 18.03 ЮВ 2
{4}
20 км 10/10 600 м
[Sc]
-27.7 -29.4 85 -35 -35 опасность
обморожения
1001.7 1001.0
00 19.03 ЮВ 2
{4}
20 км 3/0
[Ci fib]
-25.6 -28.1 79 -32 -29 опасность
обморожения
999.3 998.6
03 19.03 ЮВ 2
{5}
20 км ясно -25.0 -27.4 80 -32 -30 опасность
обморожения
999.9 999.2
06 19.03 ЮВ 2
{4}
20 км 5/0
[Ac trans Ci fib]
-25.2 -27.7 80 -32 -32 опасность
обморожения
1000.3 999.6 -25.0
09 19.03 Ю 2
{4}
20 км 8/0
[Ac trans]
-26.7 -28.5 85 -34 -34 опасность
обморожения
1000.9 1000.2
12 19.03 Ю 1
{3}
20 км 9/0
[Ac trans]
-27.0 -28.8 85 -31 -31 опасность
обморожения
1001.9 1001.2
15 19.03 Ю 1
{2}
20 км 9/0
[Ac trans]
-27.4 -29.3 84 -31 -31 опасность
обморожения
1002.9 1002.2
18 19.03 Ю 1
{6}
20 км 9/0
[Ac trans]
-27.9 -29.6 85 -32 -32 опасность
обморожения
1003.7 1003.0 -27.9
21 19.03 З 1
{3}
20 км 9/0
[Ac trans]
-26.0 -27.7 86 -30 -29 1005.7 1005.0
00 20.03 З 1
{3}
20 км 9/0
[Ac trans]
-25.3 -27.7 80 -29 -27 1008.9 1008.2
03 20.03 ЮЗ 12
{16}
2000 м метель 9/0
[Ac trans]
-24.8 -27.3 80 -41 -41 опасность
обморожения
1010.9 1010.2
06 20.03 ЮЗ 11
{16}
2000 м метель 8/0
[Ac trans]
-24.5 -27.0 80 -40 -40 опасность
обморожения
1012.3 1011.6 -24.2
09 20.03 ЮЗ 6
{13}
20 км {метель} 8/0
[Ac trans Ci fib]
-26.4 -29.5 75 -39 -39 опасность
обморожения
1013.6 1012.9
12 20.03 ЮЗ 5
{10}
20 км {метель} 4/0
[Ci fib]
-28.2 -31.3 75 -40 -40 опасность
обморожения
1014.9 1014.2
15 20.03 ЮЗ 5
{9}
20 км 6/0
[Ac trans Ci fib]
-29.3 -32.4 74 -42 -42 опасность
обморожения
1016.7 1016.0
18 20.03 ЮЗ 3
{7}
20 км 9/0
[Ac trans]
-29.1 -31.5 80 -39 -39 опасность
обморожения
1018.2 1017.5 -30.1

 

Местоположение метеостанции Мыс Ванкарем (Чукотка, Россия): широта 67.83 долгота -175.00 высота над уровнем моря 5 м.

В архиве по умолчанию представлена погода на Мысе Ванкарем за последнюю неделю. Архивные данные за месяц целиком и за предыдущие месяцы, начиная с января 2011 года, Вы можете получить, выбрав интересующий диапазон дат из раскрывающегося списка и нажав кнопку "Ввод!".


*Определитесь, кто Вы:
робот инопланетянин человек

Внимание! Время в таблицах - всемирное. Для получения местного времени необходимо прибавить поправку, которая равна 12 ч.

Смотрите также архив погоды в соседних городах и на ближайших метеорологических станциях:

Погода на Мысе Шмидта (Чукотка, Россия) (201 км)
Погода в Эгвекиноте (Чукотка, Россия) (239 км)
Погода в Уэлене (Чукотка, Россия) (320 км)
Погода на Острове Врангеля (Чукотка, Россия) (369 км)

Пояснения к столбцам:

Ветер - указаны скорость ветра в м/с - средняя за 10 мин, порывы в срок и между сроками (в фигурных скобках) и направление, откуда дует ветер: С - северный, СВ - северо-восточный, В - восточный, ЮВ - юго-восточный, Ю - южный, ЮЗ - юго-западный, З - западный, СЗ - северо-западный.
Видимость - горизонтальная дальность видимости в метрах или километрах. При видимости от 1 до 10 км при отсутствии осадков обычно наблюдается дымка, при ухудшении видимости до 1 км и менее - туман. В сухую погоду видимость может ухудшаться дымом, пылью или мглою.
Явления - указаны атмосферные явления, наблюдавшиеся в срок или в последний час перед сроком; фигурными скобками обозначены явления, наблюдавшиеся между сроками (за 1-3 часа до срока); квадратными скобками обозначены град или гололедные отложения с указанием их диаметра в мм.
Облачность - указаны через наклонную черту общая и нижняя облачность в баллах и высота нижней границы облаков в метрах; квадратными скобками обозначены формы облаков: Ci - перистые, Cs - перисто-слоистые, Cc - перисто-кучевые, Ac - высококучевые, As - высокослоистые, Sc - слоисто-кучевые, Ns - слоисто-дождевые, Cu - кучевые, Cb - кучево-дождевые. Подробнее классификацию облаков см. в Атласе облаков (PDF).
T - Температура воздуха - температура, измеренная на высоте 2 м над землей.
Td - Температура точки росы - температура, при понижении до которой содержащийся в воздухе водяной пар достигнет насыщения.
f - Относительная влажность воздуха - влажноcть воздуха, измеренная на высоте 2 м над землей.
Te - Эффективная температура - температура, которую ощущает одетый по сезону человек в тени. Характеристика душности погоды. При расчете учитывается влияние влажности воздуха и скорости ветра на теплоощущения человека.
Tes - Эффективная температура на солнце - температура, которую ощущает человек, с поправкой на солнечный нагрев. Характеристика знойности погоды. Зависит от высоты солнца над горизонтом, облачности и скорости ветра. Ночью, в пасмурную погоду, а также при ветре 12 м/с и более поправка равна нулю.
P - Атмосферное давление - приведенное к уровню моря атмосферное давление.
Po - Атмосферное давление - измеренное на уровне метеостанции атмосферное давление.
Tmin - Минимальная температура - минимум температуры воздуха на высоте 2 м над землей.
Tmax - Максимальная температура - максимум температуры воздуха на высоте 2 м над землей.
R - Количество осадков - Количество выпавших осадков за период времени, мм. При наведении курсора мыши на число - период времени, за который выпало указанное количество осадков.
R24 - Количество осадков - Количество выпавших осадков за 24 часа, мм.
S - Снежный покров - Высота снежного покрова, см. При наведении курсора мыши на число - состояние снежного покрова и степень покрытия местности в баллах.